Miscellaneous Local Product
Issued by NWS North Platte, NE

Home | Current Version | Previous Version | Graphics & Text | Print | Product List | Glossary On
Versions: 1 2 3 4 5 6 7 8 9 10 11 12 13 14 15 16 17 18 19 20 21 22 23 24 25 26 27 28 29 30 31 32 33 34 35 36 37 38 39 40 41 42 43 44 45 46 47 48 49 50
000
AXUS43 KLBF 191710
MISLBF


WESTERN AND NORTH CENTRAL NEBRASKA HOURLY WEATHER ROUNDUP
NATIONAL WEATHER SERVICE NORTH PLATTE NE
1200 PM CDT SUN OCT 19 2014

***STATIONS NOT REPORTING VARIABLES SUCH AS SKY/WEATHER OR
PRESSURE ARE PROVIDED BY THE NEBRASKA DEPARTMENT OF
ROADS...RAWS...AND APRS NETWORKS...AND ARE NOT UNDER
NATIONAL WEATHER SERVICE QUALITY CONTROL***

...OBSERVATIONS IN AND NEAR THE EASTERN PANHANDLE OF NEBRASKA...

CITY           SKY/WX    TMP DP  RH WIND       PRES   REMARKS
PINE RIDGE     SUNNY     62  43  49 CALM      30.07S
CHADRON        SUNNY     64  43  46 CALM      30.08S
ALLIANCE       SUNNY     64  43  46 NE6       30.08S
SIDNEY         SUNNY     66  42  41 NE9       30.09S
WHITECLAY        N/A     64  41  42 E5          N/A
RUSHVILLE        N/A     67  32  27 SW12        N/A
CRESCENT LAKE    N/A     67  40  38 NE10        N/A
LISCO            N/A     65  41  41 W7          N/A
BIG SPRINGS      N/A     52  45  77 W3          N/A
LEWELLEN         N/A     62  42  47 W6          N/A
$$

...OBSERVATIONS IN NORTH CENTRAL NEBRASKA...

CITY           SKY/WX    TMP DP  RH WIND       PRES   REMARKS
VALENTINE      SUNNY     72  42  34 N6        30.01F
THEDFORD       SUNNY     69  46  43 NE7       30.03S
AINSWORTH      SUNNY     68  41  38 N12       30.01S
O`NEILL        SUNNY     65  47  52 NW10      29.98S
ORD            SUNNY     61  45  55 SW10      30.00F
BROKEN BOW     SUNNY     62  45  53 W9        30.01S
BROWNLEE         N/A     72  38  28 N12         N/A
SPRINGVIEW       N/A     67  48  49 W3          N/A
BREWSTER         N/A     69  46  44 W8          N/A
ROSE             N/A     70  50  48 W3          N/A
NEWPORT          N/A     68  46  44 NW6         N/A
SARGENT          N/A     61  46  57 SW3G12      N/A
COMSTOCK         N/A     65  48  54 W9          N/A
CHAMBERS         N/A     64  45  50 W5          N/A
$$

...OBSERVATIONS IN SOUTHWEST NEBRASKA AND FAR NORTHEAST COLORADO...

CITY           SKY/WX    TMP DP  RH WIND       PRES   REMARKS
WRAY           FAIR      68  42  40 NW6       30.05S
HOLYOKE        FAIR      68  43  40 N7        30.06R
IMPERIAL       SUNNY     63  44  50 N7        30.04S
OGALLALA       SUNNY     65  45  48 N6        30.05R
NORTH PLATTE   SUNNY     57  44  62 NW7       30.04S
MCCOOK         SUNNY     60  45  57 NW6       30.03F
LEXINGTON      SUNNY     62  47  56 SW7       30.03F
PAXTON           N/A     50  45  83 CALM        N/A
SUTHERLAND       N/A     59  39  47 CALM        N/A
BRADY            N/A     58  47  66 CALM        N/A
GOTHENBURG       N/A     58  43  58 W3          N/A
CALLAWAY         N/A     55  47  75 W10         N/A
$$

...SOME WEATHER OBSERVATIONS FROM AROUND THE REGION...

CITY           SKY/WX    TMP DP  RH WIND       PRES   REMARKS
DENVER         PTSUNNY   65  36  34 SW5       30.15R
LARAMIE        SUNNY     58  30  34 N5        30.23S
CHEYENNE       SUNNY     65  29  25 N10G20    30.17S
SCOTTSBLUFF    SUNNY     61  43  51 W8        30.10F
RAPID CITY     SUNNY     68  40  35 N9        30.06S
PIERRE         SUNNY     66  43  43 W12       29.96S
WINNER         FAIR      71  41  33 NW8       29.98S
SIOUX FALLS    MOSUNNY   62  45  53 W12       29.92F
OMAHA          PTSUNNY   62  45  53 S10       30.04F
GRAND ISLAND   SUNNY     64  45  49 SW15      30.03S
KANSAS CITY    MOSUNNY   62  47  57 SW16      30.14F
WICHITA        PTSUNNY   62  46  55 S15       30.13F
HAYS           SUNNY     64  46  52 S17G25    30.05F
LIBERAL        SUNNY     68  46  45 SW24G30   30.08F
GOODLAND       SUNNY     64  46  52 N7        30.04F
$$



USA.gov is the U.S. government's official web portal to all federal, state and local government web resources and services.